Location: Fort Wayne
(41.1310°N, 85.1290°W)
Time: 06:28:39
(UTC-04:00)

COSMOS 2428 - Visible Passes

Search period start: 27 April 2015 00:00
Search period end: 07 May 2015 00:00
Orbit: 846 x 855 km, 71.0° (Epoch: 27 April)

Date Brightness Start Highest point End Pass type
(mag) Time Alt. Az. Time Alt. Az. Time Alt. Az.
27 Apr 5.0 03:43:19 11° SE 03:46:00 16° E 03:49:23 10° ENE visible
27 Apr 2.7 05:25:20 17° SSW 05:29:41 71° WNW 05:35:24 10° NNE visible
28 Apr 4.9 03:31:34 13° ESE 03:33:38 16° E 03:37:00 10° ENE visible
28 Apr 2.7 05:13:36 22° SW 05:17:19 71° WNW 05:23:02 10° NNE visible
29 Apr 4.8 03:19:46 14° ESE 03:21:16 15° E 03:24:37 10° ENE visible
29 Apr 2.7 05:01:47 27° SW 05:04:57 71° WNW 05:10:39 10° NNE visible
30 Apr 4.8 03:07:55 15° ESE 03:08:54 15° E 03:12:14 10° ENE visible
30 Apr 2.7 04:49:56 32° SW 04:52:35 72° WNW 04:58:17 10° NNE visible
01 May 4.8 02:56:01 15° ESE 02:56:32 15° E 02:59:52 10° ENE visible
01 May 2.7 04:38:02 38° SW 04:40:13 72° WNW 04:45:55 10° NNE visible
02 May 4.8 02:44:04 15° E 02:44:10 15° E 02:47:29 10° ENE visible
02 May 2.7 04:26:05 45° SW 04:27:50 72° WNW 04:33:33 10° NNE visible
03 May 4.8 02:32:05 15° E 02:32:05 15° E 02:35:06 10° ENE visible
03 May 2.7 04:14:05 51° SW 04:15:28 72° WNW 04:21:11 10° NNE visible
03 May 4.8 05:58:21 10° WNW 06:00:54 13° NW 06:03:13 10° NNW visible
04 May 4.8 02:20:03 15° E 02:20:03 15° E 02:22:43 10° ENE visible
04 May 2.7 04:02:03 58° SW 04:03:06 73° WNW 04:08:49 10° NNE visible
04 May 4.8 05:45:58 10° WNW 05:48:32 13° NW 05:50:51 10° NNW visible
05 May 4.9 02:07:59 15° E 02:07:59 15° E 02:10:20 10° ENE visible
05 May 2.6 03:49:59 64° WSW 03:50:43 73° WNW 03:56:27 10° NNE visible
05 May 4.8 05:33:34 10° WNW 05:36:09 13° NW 05:38:30 10° NNW visible
06 May 4.9 01:55:53 14° E 01:55:53 14° E 01:57:57 10° ENE visible
06 May 2.6 03:37:53 69° WSW 03:38:21 73° WNW 03:44:04 10° NNE visible
06 May 4.8 05:21:11 10° WNW 05:23:47 13° NW 05:26:08 10° NNW visible
